DELTA 1 DEB, 42583

Orbit data source: Space-Track

DELTA 1 DEB, 42583 is space debris in SSO originally from a launch on Tue, 06 Nov 1973 UTC launched from the Air Force Western Test Range (AFWTR). Debris objects in space refer to the collection of defunct objects orbiting the Earth. Examples of debris include non-operational satellites, rocket bodies, and fragments generated from explosions, collisions, or faulty payload assembly.

Loading next visibility...
Identifier
42583, 1973-086HX
Orbit
SSO
Country
Flag of USUS
Related business
Manufacturer
Unknown
Mission
Spacecraft
Bus & Motor
Unknown
Mass
Unknown
Launch date (UTC)
1973-11-06 (52 years ago)
Launch vehicle
Unknown
Launch site
Air Force Western Test Range (AFWTR)
Object type
Payload
Rocket body
Debris
Shape & HBR
Unknown shape, 0.1 m
Radar Cross Section
Small (<0.1 m²)

Expand to show TLE details & history
Last TLE update: 2 weeks ago

TLE from 2 weeks ago
0 DELTA 1 DEB
1 42583U 73086HX  25336.77929752  .00000285  00000-0  25880-2 0  9993
2 42583 101.8348 328.0709 0091487 129.7214 231.1955 12.34638920500114
Epoch: 2025-12-02T18:42Z
TLE epoch observation values (Epoch: 2025-12-02T18:42:11.305Z)
Latitude
-0°
Longitude
-24.33575°
Altitude
1,577.701 km
Speed
7.059 km/s
True Right ascension
21h 52m 17s
True Declination
0° 00' 00"
Sunlit
Object was in daylight at epoch
Visualization orbit readout
Latitude
Unknown
Longitude
Unknown
Altitude
Unknown
Speed
Unknown
Apparent Right ascension
Unknown
Apparent Declination
Unknown
Sunlit
N/A
Visualization observer readout
Local Sidereal Time
09:09:34
Azimuth
Unknown
Elevation
Unknown
Doppler factor
Unknown
Orbital elements
Apogee altitude
1,599.305 km
Perigee altitude
1,454.662 km
Semi-major axis
7,905.12 km
Eccentricity
0.00915
Inclination
101.8348°
RAAN
328.0709°
Arg. of periapsis
129.7214°
True anomaly
230.38436°
Mean anomaly
231.1955°
Eccentric anomaly
230.78935°
Mean motion
3.08802 °/min
Orbital period
116.58 mins
BSTAR
0.002588
Loading maneuver chart data...
Computing Atmospheric mass density...
Loading historical data...
Loading historical data...
Loading historical data...
Loading historical data...
Loading historical data...
Loading historical data...
Loading historical data...

Documentation

Showing up to 5 results
|